RH
18 16 15 15 15 16 16 15 15 16 16 16 16 18 21 24 25 24 23 22 20 18 17 17 18 18 18 18 19 19 19 18 16 16 16 17 18 19 21 22 22 22 20 20 20 20 20
17 16 16 15 15 16 16 15 14 14 15 16 18 18 21 25 25 23 19 16 16 16 15 15 15 17 17 18 19 21 22 20 19 19 20 21 21 21 21 23 24 23 23 22 21 20 21
13 14 14 14 14 15 14 14 14 14 16 18 19 21 24 27 25 22 18 14 12 13 15 15 15 15 15 15 16 17 18 17 17 19 20 22 24 24 25 26 27 27 26 23 21 20 22
13 12 12 13 13 14 15 15 16 19 21 21 23 23 23 24 23 18 15 13 12 12 12 15 16 15 14 14 16 16 17 17 18 20 21 22 23 24 26 27 28 30 30 28 20 24 23
13 13 13 13 14 14 16 17 19 22 24 25 25 24 22 21 19 14 12 11 11 12 13 13 15 16 16 18 18 18 18 19 20 21 22 23 24 27 31 32 29 31 32 31 26 23 25
14 14 15 15 15 16 17 21 25 27 28 27 20 17 16 15 14 15 15 14 12 12 15 16 15 15 16 17 17 17 18 21 23 23 23 26 28 31 34 31 26 25 35 30 27 24 28
17 16 16 18 20 25 29 29 28 25 20 16 14 13 14 15 15 14 13 12 12 12 11 11 12 13 14 17 18 19 20 21 22 23 23 29 31 31 29 32 28 27 30 30 28 27 30
19 23 24 26 27 28 27 24 21 16 14 14 15 14 13 12 11 10 11 11 12 14 14 12 14 15 16 19 20 21 21 21 23 24 28 30 32 26 28 30 34 36 37 36 30 28 32
28 28 28 27 24 23 21 18 15 15 16 15 11 9 8 7 7 9 12 14 17 19 22 18 23 24 23 23 23 22 23 23 25 28 29 29 23 25 27 29 32 31 34 33 32 31 32
29 30 27 23 22 20 17 16 17 13 11 8 8 9 9 10 14 14 16 19 21 23 27 22 28 27 23 21 21 22 23 23 25 26 26 28 23 24 26 28 31 33 31 33 35 37 42
31 27 24 21 18 17 18 18 13 10 9 9 10 11 13 14 16 17 19 21 21 25 30 22 25 23 22 21 21 24 23 23 24 24 24 22 20 22 26 27 29 30 31 36 38 42 47
27 23 20 19 19 19 20 13 11 11 12 13 15 17 17 17 18 20 21 20 21 26 21 22 23 24 22 21 21 22 24 24 25 26 25 24 22 23 21 21 25 28 32 40 47 50 63
20 19 19 19 20 20 13 9 10 14 18 18 18 18 18 18 17 17 18 20 23 27 18 22 24 21 19 18 19 22 25 27 27 28 25 22 22 20 21 24 27 32 41 59 58 67 57
21 20 21 21 19 11 9 13 20 21 20 20 20 19 18 18 16 15 17 16 15 17 23 24 22 20 17 18 20 26 29 30 24 25 29 36 26 23 26 25 30 36 40 60 62 63 52
23 23 20 14 9 16 23 24 23 21 21 20 19 19 18 18 16 16 17 21 18 25 27 27 19 17 17 19 20 17 24 25 25 32 37 43 35 25 26 29 34 36 40 40 51 54 70
14 14 12 13 22 26 26 24 21 21 20 19 18 19 19 18 15 16 16 22 26 27 27 26 25 22 23 24 21 18 18 21 28 29 32 35 42 25 25 29 31 38 37 47 58 66 70
17 15 20 25 27 26 24 22 22 21 19 18 18 20 20 17 17 16 21 26 31 30 28 27 30 29 29 31 28 29 25 31 34 34 35 37 40 28 28 28 29 38 44 48 52 59 63
20 22 25 26 28 26 25 23 22 20 18 16 16 19 21 18 23 30 32 33 29 34 31 29 31 36 41 41 42 40 36 43 40 45 50 49 53 48 30 26 29 34 39 46 63 57 66
21 22 26 29 29 27 24 23 20 18 16 15 18 21 21 18 26 29 26 25 28 29 30 33 36 38 38 43 46 44 45 46 47 49 54 62 66 68 44 30 34 39 43 50 55 61 62
20 24 28 30 30 28 25 22 20 18 17 16 19 22 18 19 23 23 23 26 28 29 28 30 34 35 36 45 46 49 46 45 43 46 53 58 71 75 70 46 51 53 57 62 70 77 66
26 28 33 33 31 28 27 24 21 19 16 16 18 25 22 25 27 27 27 30 29 28 28 30 38 41 41 43 42 42 43 38 34 34 39 52 61 59 53 66 72 69 60 59 67 72 81
35 36 36 36 31 30 27 23 20 18 16 15 18 20 23 29 29 29 31 34 34 35 32 34 33 33 37 42 44 46 45 44 43 35 36 37 44 42 44 39 50 58 62 60 58 54 59
40 43 38 35 32 29 25 22 20 17 17 18 21 23 24 29 29 29 33 32 33 34 32 37 35 34 35 41 43 42 41 39 39 50 53 59 59 60 51 39 36 44 62 62 63 60 58
48 44 37 34 29 26 23 22 21 22 21 20 21 22 23 29 27 29 33 33 33 33 35 29 31 38 37 33 33 32 36 40 50 62 80 85 83 85 74 60 75 68 64 66 68 69 70
47 40 36 32 29 25 22 22 22 22 24 22 20 18 22 28 30 32 32 33 33 31 33 31 33 36 38 40 43 45 47 40 57 65 77 79 88 96 96 88 80 86 82 77 82 80 78
41 38 36 37 31 24 24 27 27 26 23 22 20 22 25 28 32 31 32 36 39 38 34 32 36 37 41 48 60 70 78 70 67 56 60 70 89 96 96 96 92 97 91 83 90 93 91
42 39 36 33 29 25 27 24 24 22 24 23 22 28 28 29 30 34 38 40 42 45 46 43 45 44 51 62 63 82 80 83 83 80 68 68 75 86 89 92 97 98 90 84 97 98 96
37 34 30 27 26 25 28 27 25 21 25 30 33 31 29 28 31 32 36 41 45 49 53 48 51 55 57 69 76 90 91 92 88 79 80 77 80 86 87 89 96 89 82 89 97 95 94
33 30 27 25 24 24 22 25 24 24 31 33 33 33 29 30 28 31 36 40 45 47 47 54 59 69 72 79 89 93 87 88 92 92 82 83 91 89 90 93 94 90 92 93 92 91 86